Showing default

ICEYE-X31, 58288

Orbit data source: Space-Track

ICEYE-X31, 58288 is a payload satellite owned by ICEYE (FI) in SSO that was launched on Sat, 11 Nov 2023 UTC via an FALCON 9 launch vehicle from the Air Force Western Test Range (AFWTR). Payload-class satellites include a variety of spacecraft equipped with specific instruments for various scientific and technological missions. These include communications satellites like Starlink; space stations such as the ISS; scientific satellites like the Hubble; Earth observation satellites from companies like Planet Labs, Umbra, and HawkEye 360; GPS; miniature CubeSats for education and research; and military/defense satellites.

Loading next visibility...
Identifier
58288, 2023-174AJ
Orbit
SSO
Country
Flag of FIFI / FIN
Related business
Manufacturer
ICEYE
Mission
Operational Commercial Radar Imaging
Bus & Motor
ICEYE, Unknown motor
Mass
90 kg wet, 89 kg dry
Launch date (UTC)
2023-11-11 (2 years ago)
Launch vehicle
FALCON 9
Launch site
Air Force Western Test Range (AFWTR)
Object type
Payload
Rocket body
Debris
Shape & HBR
Box + 1 Pan, 1.6 m
Radar Cross Section
0.825 m², Medium (>0.1 m² and < 1m²)

Expand to show TLE details & history
Last TLE update: 15 hours ago

TLE from 15 hours ago
0 ICEYE-X31
1 58288U 23174AJ  25258.52958742  .00015376  00000-0  64045-3 0  9996
2 58288  97.4092 330.9256 0003145 192.4318 167.6842 15.23814381102770
Epoch: 2025-09-15T12:42Z
TLE epoch observation values (Epoch: 2025-09-15T12:42:36.353Z)
Latitude
-0.00001°
Longitude
145.5412°
Altitude
499.555 km
Speed
7.614 km/s
True Right ascension
22h 03m 42s
True Declination
0° 00' 00"
Sunlit
Object was in full shadow at epoch
Visualization orbit readout
Latitude
Unknown
Longitude
Unknown
Altitude
Unknown
Speed
Unknown
Apparent Right ascension
Unknown
Apparent Declination
Unknown
Sunlit
N/A
Visualization observer readout
Local Sidereal Time
20:35:51
Azimuth
Unknown
Elevation
Unknown
Doppler factor
Unknown
Orbital elements
Apogee altitude
493.469 km
Perigee altitude
489.148 km
Semi-major axis
6,869.446 km
Eccentricity
0.00031
Inclination
97.4092°
RAAN
330.9256°
Arg. of periapsis
192.4318°
True anomaly
167.69188°
Mean anomaly
167.6842°
Eccentric anomaly
167.68804°
Mean motion
3.81207 °/min
Orbital period
94.44 mins
BSTAR
0.00064045
Loading maneuver chart data...
Computing Atmospheric mass density...
Loading historical data...
Loading historical data...
Loading historical data...
Loading historical data...
Loading historical data...
Loading historical data...
Loading historical data...

Documentation

Showing up to 5 results
|